Regional Weather Roundup
Issued by NWS Cleveland, OH

Home | Current Version | Previous Version | Text Only | Print | Product List | Glossary Off
Versions: 1 2 3 4 5 6 7 8 9 10 11 12 13 14 15 16 17 18 19 20 21 22 23 24 25 26 27 28 29 30 31 32 33 34 35 36 37 38 39 40 41 42 43 44 45 46 47 48 49 50

000
ASUS41 KCLE 241512
RWRCLE
OHIO REGIONAL WEATHER ROUNDUP
NATIONAL WEATHER SERVICE WILMINGTON, OH
1100 AM EDT SAT JUN 24 2017

NOTE: "FAIR" INDICATES FEW OR NO CLOUDS BELOW 12,000 FEET WITH NO
SIGNIFICANT WEATHER AND/OR OBSTRUCTIONS TO VISIBILITY.

OHZ001>008-015>018-024>027-034-035-043-044-241600-
   NORTHWEST OHIO

CITY           SKY/WX    TMP DP  RH WIND       PRES   REMARKS
DEFIANCE       FAIR      70  55  59 SW7       29.92R
FINDLAY        FAIR      73  57  57 W9        29.91S
TOLEDO EXPRESS FAIR      72  56  57 SW15      29.89R
TOLEDO EXEC    FAIR      74  55  51 W15       29.89R
LIMA           FAIR      70  58  65 W8        29.93S
$$

OHZ009>014-019>023-028>033-038-089-241600-
   NORTHEAST OHIO

CITY           SKY/WX    TMP DP  RH WIND       PRES   REMARKS
CLE-HOPKINS    FAIR      74  60  61 W10       29.88S
CLE-LAKEFRONT  FAIR      72  62  71 W14       29.86R
CUY CO. ARPT   MOSUNNY   72  61  68 W15       29.87R
LORAIN-ELYRIA  FAIR      70  54  56 W9        29.89R
ASHTABULA      FAIR      72  62  71 W9        29.85S
AKRON-CANTON   FAIR      73  57  57 W14       29.89R
WOOSTER        FAIR      71  60  68 W9        29.91R
MANSFIELD      FAIR      71  59  65 VRB6      29.92S
YOUNGSTOWN     FAIR      73  57  57 W7G18     29.87S
$$

OHZ042-051>053-060>062-070>072-077>081-241600-
  SOUTHWEST OHIO

CITY           SKY/WX    TMP DP  RH WIND       PRES   REMARKS
CINC-COVINGTON FAIR      71  61  70 VRB5      30.00R
CINC-LUNKEN    FAIR      73  62  68 W3        29.99S
HAMILTON       FAIR      73  63  70 W6        30.00R
DAYTON         FAIR      71  58  63 W10       29.98R
WRIGHT-PAT AFB MOSUNNY   71  61  69 W7        29.97R
DAYTON GENERAL FAIR      71  59  65 W6        29.98R
WILMINGTON     FAIR      71  62  73 W7        29.98R
$$

OHZ036-037-039>041-045>050-054>059-063>069-073>076-082>088-241600-
  CENTRAL AND SOUTHEAST OHIO

CITY           SKY/WX    TMP DP  RH WIND       PRES   REMARKS
COLUMBUS       FAIR      73  61  65 NW9       29.94R
OSU AIRPORT    FAIR      72  61  68 W8        29.94R
BOLTON FIELD   SUNNY     72  61  68 W8        29.96R
RICKENBACK AFB FAIR      71  62  71 NW7       29.95R
NEWARK         FAIR      73  61  65 W9        29.93R
MARION         FAIR      70  57  63 W12       29.94R
LANCASTER      FAIR      71  63  75 SW13      29.95R
ZANESVILLE     FAIR      74  62  66 W9        29.92S
NEW PHILLY     FAIR      75  63  66 VRB7      29.90S
$$



USA.gov is the U.S. government's official web portal to all federal, state and local government web resources and services.